User: anonymous   Login
Location: Unspecified
(0.0000°N, 0.0000°E)
Time: 18:42:21
(UTC+00:00)
Language:

TRACE - Orbit

View from above orbital plane
View from above orbital plane
View from above satellite
View from above satellite

Ground track
Ground track

The orbit data is extracted from the following two-line orbital elements,

1 25280U 98020A   18292.18821417  .00000553  00000-0  34976-4 0  9996
2 25280  97.4851 124.0362 0024318 141.4669 218.8304 15.12857603124292
Epoch (UTC): 19 October 2018 04:31:01
Eccentricity: 0.0024318
inclination: 97.4851°
perigee height: 511 km
apogee height: 544 km
right ascension of ascending node: 124.0362°
argument of perigee: 141.4669°
revolutions per day: 15.12857603
mean anomaly at epoch: 218.8304°
orbit number at epoch: 12429

The dashed part of the orbit path shows where the satellite is in the earth's shadow,  

DLR